Weather History for George, South Africa

Change the Weather History Date:

Thursday, September 26, 2013

  Actual Average Record
Temperature  
Mean Temperature 61 °F -  
Max Temperature 74 °F 67 °F 82 °F (1997)
Min Temperature 48 °F 50 °F 41 °F (1998)
Degree Days  
Heating Degree Days 4    
Growing Degree Days 11 (Base 50)    
Moisture  
Dew Point 51 °F    
Average Humidity 72    
Maximum Humidity 94    
Minimum Humidity 40    
Precipitation  
Precipitation 0.00 in - - ()
Sea Level Pressure  
Sea Level Pressure 29.91 in    
Wind  
Wind Speed 4 mph ()    
Max Wind Speed 12 mph    
Max Gust Speed -    
Visibility 11.3 miles    
Events      
Averages and records for this station are not official NWS values.
T = Trace of Precipitation, MM = Missing Value Source: Averaged Metar Reports

Daily Weather History Graph

Daily Weather History Graph

Search for Another Location

Airport:

Trip Planner

Search our weather history database for the weather conditions in past years. The results will help you decide how hot, cold, wet, or windy it might be!

Date:

Astronomy

Sep. 26, 2013 Rise Set
Actual Time 6:14 AM SAST 6:29 PM SAST
Civil Twilight 5:49 AM SAST 6:54 PM SAST
Nautical Twilight 5:20 AM SAST 7:24 PM SAST
Astronomical Twilight 4:50 AM SAST 7:53 PM SAST
Moon 12:22 AM SAST (9/26) 10:51 AM SAST (9/26)
Length of Visible Light 13h 05m
Length of Day
12h 15m
Waning Gibbous, 57% of the Moon is Illuminated
Sep 26
Waning Gibbous
Sep 27
Last Quarter
Oct 5
New
Oct 12
First Quarter
Oct 19
Full

Hourly Weather History & Observations

Time (SAST) Temp. Dew Point Humidity Pressure Visibility Wind Dir Wind Speed Gust Speed Precip Events Conditions
12:00 AM 51.8 °F 46.4 °F 82% 30.06 in - North 4.6 mph - N/A   Clear
1:00 AM 51.8 °F 46.4 °F 82% 30.04 in - NE 4.6 mph - N/A   Clear
2:00 AM 52 °F 47 °F 78% 30.05 in 12 mi NE 3.5 mph - -  
2:00 AM 51.8 °F 48.2 °F 88% 30.04 in - NE 3.5 mph - N/A   Clear
3:00 AM 50.0 °F 46.4 °F 87% 30.04 in - NNW 4.6 mph - N/A   Clear
4:00 AM 51.8 °F 46.4 °F 82% 30.04 in - North 4.6 mph - N/A   Clear
5:00 AM 52 °F 46 °F 74% 30.01 in 12 mi NE 4.6 mph - -   Scattered Clouds
5:00 AM 51.8 °F 46.4 °F 82% 30.01 in 6.2 mi NE 4.6 mph - N/A   Partly Cloudy
6:00 AM 50.0 °F 46.4 °F 87% 30.01 in - NNW 3.5 mph - N/A   Clear
7:00 AM 51.8 °F 46.4 °F 82% 30.01 in - NW 5.8 mph - N/A   Clear
8:00 AM 59 °F 49 °F 60% 30.02 in 12 mi WNW 3.5 mph - -   Scattered Clouds
8:00 AM 59.0 °F 48.2 °F 67% 30.01 in - WNW 3.5 mph - N/A   Clear
9:00 AM 62.6 °F 51.8 °F 68% 30.01 in - Variable 2.3 mph - N/A   Clear
10:00 AM 66.2 °F 50.0 °F 56% 30.01 in - Variable 2.3 mph - N/A   Clear
11:00 AM 69 °F 50 °F 40% 29.98 in 12 mi SSW 2.3 mph - -   Mostly Cloudy
12:00 PM 71.6 °F 51.8 °F 50% 29.92 in - ENE 4.6 mph - N/A   Clear
1:00 PM 73.4 °F 55.4 °F 53% 29.86 in - SSE 11.5 mph - N/A   Clear
2:00 PM 69 °F 53 °F 47% 29.86 in 12 mi SE 9.2 mph - -   Scattered Clouds
2:00 PM 69.8 °F 53.6 °F 56% 29.86 in - SE 9.2 mph - N/A   Clear
4:00 PM 68.0 °F 55.4 °F 64% 29.77 in - SSE 8.1 mph - N/A   Clear
5:00 PM 67 °F 54 °F 55% 29.77 in 12 mi ESE 8.1 mph - -   Clear
5:00 PM 66.2 °F 55.4 °F 68% 29.74 in - ESE 8.1 mph - N/A   Clear
6:00 PM 62.6 °F 55.4 °F 77% 29.74 in - SE 5.8 mph - N/A   Clear
7:00 PM 60.8 °F 53.6 °F 77% 29.74 in - SSE 3.5 mph - N/A   Clear
8:00 PM 58 °F 53 °F 80% 29.75 in 12 mi 1.2 mph - -   Clear
8:00 PM 59.0 °F 53.6 °F 82% 29.74 in - Variable 1.2 mph - N/A   Clear
9:00 PM 57.2 °F 53.6 °F 88% 29.74 in - North 4.6 mph - N/A   Clear
10:00 PM 57.2 °F 51.8 °F 82% 29.74 in - SW 8.1 mph - N/A   Clear
11:00 PM 55.4 °F 53.6 °F 94% 29.74 in - WSW 4.6 mph - N/A   Clear